Theta_e
308 307 308 305 306 307 308 308 309 309 307 308 308 307 304 303 299 298 297 300 301 305 307 305 307 311 311 310 312 312 316 316 313 313 314 315 315 318 313 310 309 309 308 307 308 307 308 309 311 313 316 317 319 318 317 316 316 316 318 319 318 316 316 317 317 321 326 329 327 324 321 319 318 316
307 308 307 306 304 307 307 309 310 308 307 307 308 306 306 304 301 301 298 299 302 303 306 307 306 309 309 309 311 312 311 312 312 311 312 313 313 311 311 311 309 309 307 306 305 305 306 308 310 313 314 314 315 316 315 314 315 316 317 317 318 318 318 318 319 322 324 325 323 320 319 319 317 317
308 307 305 306 305 304 304 306 310 309 307 306 305 305 305 307 304 303 301 298 301 306 305 306 309 307 307 308 308 310 310 312 311 310 310 312 312 311 312 310 309 309 309 308 306 306 307 307 308 310 312 314 313 313 313 316 315 315 315 313 315 318 319 319 319 322 324 324 324 323 320 319 318 317
308 306 304 305 305 305 305 305 305 305 307 307 307 306 306 305 306 304 302 300 301 304 305 306 307 307 307 307 306 306 307 310 311 310 310 311 311 312 312 311 310 309 308 308 308 309 310 309 308 309 310 310 311 312 311 314 314 312 311 312 314 316 318 319 319 321 323 323 322 321 319 319 319 317
307 308 307 305 306 305 304 303 304 305 304 306 306 306 304 303 304 304 302 300 300 301 304 305 305 307 307 306 306 305 305 306 308 310 308 309 309 309 309 310 308 307 306 306 306 306 306 305 306 305 305 306 308 308 308 310 309 310 310 308 309 311 316 319 319 318 321 322 321 319 319 319 318 316
309 304 304 306 306 306 304 304 305 305 305 304 302 304 306 304 304 304 302 300 299 299 301 303 305 306 307 305 305 305 305 305 306 306 306 307 307 308 308 307 309 306 306 305 304 304 305 305 305 305 304 304 305 306 307 307 307 307 306 306 306 310 312 315 316 316 318 320 320 319 318 318 317 317
307 304 305 305 305 307 304 305 304 305 305 304 303 302 303 302 302 304 304 301 299 299 300 302 303 303 304 303 304 304 305 305 306 305 305 305 307 308 308 308 309 307 305 305 305 304 303 303 303 304 304 304 304 304 304 305 305 304 304 304 305 306 307 307 309 311 311 316 318 318 318 316 317 318
306 305 305 305 306 306 304 304 304 303 303 303 302 301 301 301 302 302 302 302 300 299 298 298 300 302 301 301 303 304 305 304 303 304 304 304 305 304 305 305 306 307 306 304 304 304 305 305 304 303 303 304 304 304 304 304 304 304 304 303 303 303 303 304 305 306 309 312 316 318 317 316 317 319
306 306 306 306 305 304 303 303 303 302 302 303 302 300 300 300 302 302 302 301 301 299 297 298 299 301 301 303 303 303 302 302 303 303 303 304 304 304 305 307 308 306 306 306 306 306 306 305 305 305 304 304 303 303 304 304 303 303 304 303 303 303 303 303 303 303 305 307 309 315 318 316 319 323
307 306 306 305 304 303 302 302 302 302 301 302 300 299 299 299 299 298 298 298 298 297 297 297 297 298 300 300 300 302 303 302 301 301 302 302 302 303 304 305 308 311 310 309 309 306 305 305 305 305 305 304 303 304 304 304 304 304 304 304 304 303 303 302 302 302 302 303 304 306 311 316 319 324
306 306 305 304 303 303 302 302 301 299 299 300 297 298 296 296 296 296 296 296 296 295 295 295 296 297 298 299 297 300 302 301 300 299 300 300 302 303 303 303 305 306 307 305 304 305 304 305 305 305 304 304 304 304 303 304 304 304 304 303 303 303 303 302 302 302 302 302 302 303 304 308 315 320
305 305 305 304 303 303 303 300 297 297 295 296 294 294 296 296 295 294 295 295 294 294 294 293 293 294 295 295 296 299 298 298 297 300 299 297 297 299 301 302 302 304 305 304 306 306 307 306 305 305 304 304 303 303 303 305 305 305 304 303 302 302 302 302 302 302 302 302 302 302 303 303 304 312
305 304 304 304 304 308 306 302 301 300 300 294 291 292 294 296 293 293 293 294 292 292 292 291 293 291 292 292 293 293 293 294 294 297 298 297 298 298 299 301 303 304 303 303 303 304 306 305 305 306 306 307 306 307 306 306 306 305 303 303 302 302 302 302 302 302 302 302 302 301 301 302 303 303
304 303 303 308 312 306 302 298 295 294 296 298 296 293 293 293 293 292 292 291 292 292 291 290 290 290 290 290 292 293 294 295 295 296 295 294 296 296 297 298 299 302 299 298 298 299 303 303 303 304 304 306 306 306 307 308 308 306 304 303 302 302 302 302 302 302 302 302 302 301 301 301 302 301
302 302 303 306 305 303 301 298 293 293 293 293 294 295 297 297 293 292 292 291 291 292 292 292 291 289 290 291 292 292 293 293 294 294 294 294 294 293 293 292 296 300 298 297 295 296 300 301 300 301 302 303 304 304 304 302 301 301 300 301 302 302 302 302 302 301 302 302 302 301 301 301 301 301
303 302 303 304 304 300 299 298 297 295 294 293 292 292 292 292 293 295 293 293 291 290 290 290 291 290 290 291 292 292 293 293 293 294 293 293 293 292 291 291 292 296 298 295 294 294 297 300 299 298 300 302 302 303 302 301 301 300 301 300 300 301 302 301 301 301 301 301 300 300 300 300 300 300
303 302 303 303 304 303 306 305 300 298 296 295 293 293 293 293 292 290 290 291 294 292 291 291 291 291 292 292 293 293 293 293 293 294 293 293 292 292 291 292 292 294 296 294 293 293 295 297 296 296 299 300 301 302 301 301 301 300 300 301 300 300 300 300 301 301 300 300 300 299 299 299 299 299
303 302 302 303 303 303 304 303 302 300 297 296 295 293 292 292 294 293 292 291 291 292 292 291 291 293 293 293 294 295 295 294 294 293 293 293 292 292 292 293 293 294 297 293 293 292 293 295 295 295 297 299 300 300 301 300 300 300 300 300 300 300 300 301 300 300 300 299 299 298 298 298 297 297
302 302 303 302 302 302 303 302 301 299 296 295 296 293 293 293 293 294 294 293 292 293 293 292 292 293 293 294 294 295 295 295 295 296 295 294 293 293 292 292 292 292 294 294 292 289 292 294 294 294 296 298 299 299 299 300 300 300 300 299 299 300 300 299 299 298 298 298 297 297 297 297 297 297
301 301 301 300 300 300 301 299 295 296 297 295 293 292 291 291 291 292 296 296 296 296 295 294 294 294 294 294 293 293 293 293 293 294 294 292 291 290 289 289 290 290 292 294 292 290 291 293 293 294 296 297 297 298 299 299 300 300 300 300 300 300 299 299 299 298 297 297 297 297 297 296 295 295
300 301 302 301 301 301 301 295 291 290 294 294 292 291 290 291 291 292 293 295 293 292 291 291 291 291 291 291 292 292 292 292 292 290 289 288 289 288 287 288 288 289 289 291 293 291 290 292 293 293 294 295 295 296 297 299 299 299 299 298 299 299 298 297 297 296 296 296 296 296 296 296 295 295
300 303 307 304 301 298 294 288 289 290 294 291 290 289 289 289 288 289 290 292 292 291 291 291 290 290 290 291 291 292 292 292 293 289 287 289 288 288 288 287 288 288 289 290 293 290 290 292 292 292 293 293 294 295 296 297 298 300 299 296 296 296 297 296 296 296 296 296 296 296 296 295 295 297
300 298 294 296 294 292 290 288 289 289 291 288 287 287 286 286 286 287 287 287 287 287 287 287 288 288 290 291 290 291 292 292 293 291 290 290 289 288 288 288 288 287 287 290 292 289 289 290 292 291 290 289 291 294 295 295 298 301 300 298 297 295 296 296 296 296 295 295 295 296 295 295 295 298
295 293 292 291 288 288 288 288 287 288 289 288 287 287 286 285 285 287 286 287 286 285 286 286 286 287 287 287 288 288 288 290 293 291 291 290 290 289 289 289 288 287 288 291 293 291 291 291 290 291 290 288 285 291 294 295 296 301 300 300 299 296 295 295 295 294 295 295 295 295 295 295 295 298
293 292 290 290 289 288 288 288 288 288 288 289 289 287 286 286 288 288 285 287 289 286 286 287 287 286 287 287 287 287 287 288 289 290 290 290 290 290 289 289 289 289 291 294 295 294 291 293 291 291 290 290 290 290 291 293 294 297 300 299 299 299 298 297 296 295 295 294 294 294 294 294 294 297
292 292 291 290 289 288 288 288 288 288 288 288 291 288 288 288 288 287 287 286 285 285 285 284 285 285 285 285 286 287 288 289 290 289 289 289 290 291 292 292 291 290 291 295 293 294 293 292 292 291 291 290 290 289 289 290 293 295 300 299 298 298 298 296 295 295 295 295 295 295 295 294 294 295
292 293 291 291 290 288 288 288 288 288 288 288 288 287 287 288 288 288 286 285 285 284 284 284 284 285 285 286 287 287 288 289 289 290 290 290 290 291 293 294 294 293 294 295 297 296 294 293 294 292 291 291 289 289 289 288 290 294 294 295 294 293 293 294 294 294 294 294 294 294 293 293 293 294
293 292 292 292 289 289 288 288 289 288 288 287 288 288 288 288 288 286 286 284 284 284 284 284 284 286 287 288 288 288 289 289 290 290 291 291 291 291 291 291 292 293 294 294 295 295 295 294 294 294 293 291 289 288 288 290 290 291 291 290 290 290 290 290 290 291 292 292 293 293 293 293 293 293
289 289 289 289 289 289 289 289 289 289 289 289 288 288 288 290 285 285 284 284 284 284 285 286 287 287 288 288 289 290 290 291 291 290 291 291 292 292 291 291 291 292 294 295 294 294 294 294 293 294 293 293 291 291 291 290 291 291 291 290 289 290 289 289 287 287 289 289 289 291 292 293 292 293
289 289 289 289 289 289 289 290 288 287 288 288 289 288 289 286 284 284 284 285 286 286 287 287 286 286 287 288 290 290 290 290 289 290 290 290 290 291 291 290 290 291 292 293 294 294 294 294 294 293 293 293 293 292 292 291 291 292 292 290 289 289 289 289 288 288 289 288 289 290 292 293 292 292
289 289 290 289 288 288 289 288 288 288 288 286 286 285 285 285 285 285 285 285 286 286 286 286 286 287 288 288 287 286 286 287 288 289 289 289 289 290 290 289 289 290 292 293 294 294 294 294 294 294 292 292 292 292 293 293 291 292 293 293 293 290 290 291 290 290 289 289 290 291 292 292 292 292
289 289 289 289 289 289 287 286 284 285 284 285 285 283 283 284 285 288 289 289 287 286 286 286 286 285 286 285 286 286 287 287 288 288 288 287 287 288 288 287 287 288 289 291 292 293 292 294 293 293 293 292 291 292 293 292 291 292 292 293 293 294 293 292 291 290 291 291 290 290 291 291 291 292
288 287 287 285 285 283 283 283 284 282 282 283 283 285 286 285 286 286 284 285 285 286 285 285 285 286 286 286 286 286 286 286 287 288 287 287 287 287 288 286 286 286 286 287 289 291 292 293 293 293 293 293 293 292 291 288 290 291 291 292 293 292 292 292 291 291 292 291 289 289 289 291 292 292
285 284 283 282 281 281 282 281 281 282 282 283 283 283 285 285 285 285 285 285 285 285 285 285 285 285 285 285 286 286 285 286 286 287 287 286 287 286 285 285 285 286 286 286 287 289 290 291 292 292 292 292 293 293 292 290 289 290 291 292 292 292 292 292 291 292 291 289 288 287 287 288 290 292
281 282 281 280 280 281 281 281 282 281 282 283 283 283 283 284 284 285 285 285 284 284 284 284 285 285 285 285 285 284 284 284 285 286 286 286 286 286 285 285 285 285 286 286 286 287 288 288 289 288 289 289 289 291 294 293 290 290 291 292 292 292 292 291 291 291 291 289 289 287 286 287 288 290
279 279 281 281 281 280 281 282 283 282 282 282 282 282 282 283 284 284 284 284 284 284 284 285 285 285 284 284 284 284 284 284 285 285 285 285 285 285 285 285 285 285 286 286 286 287 288 287 287 286 285 285 285 284 286 293 294 292 290 289 291 292 291 291 291 291 289 288 288 287 286 286 287 288
280 279 280 281 280 280 281 281 281 281 282 282 282 282 282 283 283 283 284 284 284 284 285 285 285 285 285 285 285 285 285 285 284 285 284 285 285 285 284 285 285 285 285 286 287 287 287 286 287 286 285 284 283 283 285 289 291 294 293 290 289 291 290 290 289 288 288 289 287 287 286 286 286 287
281 280 280 281 281 281 282 282 281 281 282 282 282 282 283 283 284 284 285 284 284 284 285 285 285 285 285 285 285 285 285 285 285 284 284 284 284 284 284 284 284 285 285 286 286 286 287 287 286 286 285 283 283 283 284 286 288 289 293 293 290 289 289 288 287 287 287 287 287 286 287 286 286 287
281 280 281 281 282 281 281 281 281 282 283 284 283 283 283 284 284 284 284 283 283 284 284 284 285 285 285 285 285 284 284 284 284 284 284 284 284 284 284 284 284 285 285 285 286 286 287 286 286 286 286 285 284 285 286 285 286 287 288 290 292 289 288 289 287 287 286 285 285 285 285 286 287 287
281 281 282 281 282 282 282 282 284 285 285 285 284 283 283 283 284 284 284 284 284 284 284 284 285 285 285 285 285 285 284 284 284 284 284 284 284 284 284 284 284 284 284 284 284 285 286 286 287 287 287 288 288 288 288 287 287 286 286 288 290 291 289 288 287 286 285 285 286 285 284 285 284 285
281 280 281 281 283 284 285 284 284 285 285 285 284 284 283 283 283 283 284 284 284 284 284 284 285 284 284 285 285 284 284 284 284 284 284 284 284 284 285 285 284 284 284 284 284 284 285 287 288 288 289 289 288 288 287 286 285 287 286 286 288 291 290 290 289 287 286 286 286 285 284 284 283 284
281 281 281 282 282 283 284 284 285 285 285 285 285 284 284 284 284 285 285 285 284 284 284 284 284 284 284 285 285 284 284 284 284 284 284 284 284 284 284 284 284 284 284 283 284 285 287 288 288 288 288 288 287 285 284 285 285 285 285 286 286 289 290 290 290 289 288 287 286 284 284 284 284 283
283 282 282 281 282 284 284 285 285 285 285 285 285 285 285 284 285 284 284 284 284 284 284 284 284 284 284 285 285 284 284 284 284 284 284 284 284 284 284 284 284 285 285 285 286 286 286 287 288 287 287 287 286 286 285 285 286 285 285 285 285 286 287 289 289 289 289 289 288 287 286 285 283 280
282 282 281 282 284 285 285 285 285 285 285 285 285 285 284 284 284 284 284 284 284 284 284 284 284 284 284 284 284 284 284 284 284 284 284 284 284 284 284 284 285 285 285 285 285 286 286 286 286 287 286 286 286 285 285 286 285 285 285 285 285 285 285 285 286 287 287 287 287 288 287 287 286 286
282 280 281 283 285 285 285 285 285 285 285 285 284 284 284 284 284 284 284 284 284 284 284 284 284 284 284 284 284 283 284 285 285 284 285 284 284 285 285 285 285 285 285 285 285 285 285 286 286 286 286 287 287 286 286 286 285 285 284 284 284 285 285 285 285 285 285 285 286 287 286 287 286 286
Wind_Speed
4 4 4 4 5 4 3 4 4 3 4 4 3 2 4 3 3 3 4 3 3 2 5 4 3 7 6 7 6 6 3 4 5 3 2 2 1 2 7 9 9 9 10 10 12 12 12 12 11 11 11 12 11 12 12 11 12 15 17 19 19 18 18 18 18 19 20 21 19 17 17 18 19 18
2 3 4 3 4 3 3 2 1 2 2 3 3 3 2 2 3 1 1 4 2 4 3 2 3 4 5 6 5 5 6 7 6 4 5 5 4 7 6 5 7 9 9 10 10 12 13 13 13 13 13 13 12 12 12 13 14 13 14 16 17 18 19 19 19 20 21 21 19 18 19 18 18 19
2 2 4 3 3 3 3 3 1 2 3 1 1 1 2 2 3 2 1 1 4 2 6 4 3 3 4 6 5 4 4 6 9 7 5 5 7 7 5 7 7 8 9 10 11 12 13 14 15 15 15 14 14 13 13 13 13 14 13 13 15 17 18 19 20 21 21 21 21 21 20 18 17 19
2 2 4 3 3 2 3 3 3 2 1 1 1 0 1 1 1 2 2 2 6 3 3 5 6 7 8 8 7 7 6 7 10 7 7 7 8 5 4 7 10 11 11 11 12 12 13 14 15 16 16 16 15 14 14 13 12 11 12 13 14 16 18 19 19 20 21 21 22 22 20 19 18 18
2 1 1 2 3 2 3 3 4 3 3 1 2 0 1 3 2 1 0 0 4 4 2 3 5 6 6 6 5 7 7 8 8 8 6 7 6 7 6 6 9 12 12 13 13 12 11 11 12 13 14 14 14 14 14 13 13 13 13 13 13 14 16 18 19 20 20 20 21 22 21 21 20 19
1 2 2 1 1 2 2 2 3 2 4 3 3 2 0 1 1 2 0 1 1 4 3 5 5 4 4 4 3 5 7 7 7 7 7 6 6 7 7 7 6 11 12 10 10 9 11 12 13 14 15 15 15 14 14 14 14 15 14 14 14 14 15 16 17 18 19 21 21 21 21 21 22 21
2 1 1 2 2 1 1 1 2 2 2 2 3 3 2 3 4 5 5 1 2 3 3 2 3 2 3 3 5 5 5 6 6 6 6 6 6 5 5 6 5 8 11 5 6 8 9 10 10 11 12 13 14 15 15 14 14 15 14 14 14 15 15 16 17 17 19 20 21 21 21 21 21 21
4 4 2 2 2 2 2 1 2 2 3 4 3 4 4 4 3 2 2 1 0 2 4 3 3 3 4 4 4 5 5 6 6 5 6 5 6 6 6 4 4 5 7 9 12 10 7 6 7 8 10 11 13 14 15 15 15 15 15 15 14 14 15 16 16 17 18 20 21 22 22 22 22 22
5 5 4 4 3 3 2 1 1 2 3 2 3 3 3 3 3 3 4 4 3 2 3 5 3 4 4 4 5 5 6 6 6 5 6 5 6 6 6 5 6 8 11 11 10 9 11 10 9 8 9 10 11 13 14 15 15 15 15 15 15 15 15 16 16 17 18 19 20 22 23 22 23 24
6 5 5 4 3 4 3 2 1 1 2 2 3 4 4 4 3 3 4 3 4 4 3 3 6 4 6 5 4 5 5 6 6 7 7 5 5 5 6 6 5 3 4 4 6 8 10 12 13 13 11 10 11 12 14 15 15 16 16 16 16 16 16 16 16 17 17 18 19 20 21 22 23 26
6 5 5 4 4 4 3 3 3 3 3 3 3 3 3 3 3 3 3 3 3 3 3 3 3 5 4 3 5 5 6 7 4 4 6 6 6 6 5 7 6 4 5 5 7 7 8 9 9 11 13 13 12 12 13 14 16 17 18 18 17 17 17 17 17 17 17 18 18 19 19 20 21 23
6 6 5 4 4 4 3 4 3 4 3 2 2 3 3 3 3 3 3 4 4 4 4 3 4 3 4 6 4 4 6 7 8 8 6 7 6 7 8 7 8 6 5 7 7 8 10 10 11 12 12 11 11 12 11 12 14 16 16 16 16 16 17 18 18 18 18 18 19 19 19 20 20 21
6 5 5 5 5 4 6 8 6 5 4 1 0 2 1 1 2 3 3 3 3 4 4 6 4 5 6 5 5 7 5 4 5 5 5 6 8 7 7 7 7 7 8 8 8 7 7 8 8 7 7 7 9 8 9 8 10 12 14 15 16 17 17 16 16 17 17 17 18 19 19 20 20 21
6 6 5 6 10 10 10 9 8 8 6 5 3 2 1 1 0 1 2 3 3 3 5 5 5 7 7 6 4 4 4 5 6 7 7 8 8 8 8 7 3 5 8 9 9 9 6 7 7 6 6 5 6 6 7 5 6 9 12 13 15 16 17 17 17 17 18 18 18 18 18 19 19 19
7 5 5 5 8 9 8 8 9 8 8 6 6 6 6 5 3 2 2 3 3 3 3 4 4 5 7 7 4 4 6 5 4 4 5 6 6 5 6 8 7 4 10 8 9 10 9 9 10 9 8 8 8 8 9 14 16 16 14 13 14 15 17 17 18 18 18 18 17 17 18 18 19 19
6 6 5 4 5 5 7 5 5 5 6 7 8 8 8 7 5 3 3 4 3 3 4 5 6 5 6 7 5 6 6 5 5 6 7 7 6 7 6 5 7 4 8 9 10 12 4 5 8 10 9 8 7 8 12 19 21 22 21 16 13 13 14 16 18 19 18 18 18 18 18 18 18 17
7 6 5 5 4 4 8 6 4 4 3 6 9 7 4 5 6 7 8 7 5 4 4 5 7 6 6 7 6 4 3 3 8 8 8 6 5 4 6 7 6 6 5 8 9 13 8 6 8 9 8 8 8 9 11 14 17 19 18 19 18 15 15 15 17 18 18 18 17 17 17 16 16 15
7 7 6 6 5 4 5 5 5 4 4 4 3 3 4 4 6 8 9 10 10 7 6 6 7 7 4 8 7 6 5 8 9 8 9 6 6 6 8 7 7 6 3 6 8 12 8 6 9 10 7 6 8 7 10 14 16 17 18 19 20 19 15 15 16 14 13 12 11 10 10 11 12 12
7 6 6 6 5 4 3 3 4 4 4 3 3 3 3 4 4 4 4 3 3 3 4 6 7 8 7 8 8 7 6 7 7 8 9 7 6 7 6 7 5 7 3 4 4 12 8 7 10 10 9 8 8 6 10 14 16 18 18 18 18 16 14 12 9 6 6 7 7 8 10 12 13 13
6 6 5 5 3 2 2 6 9 6 3 3 4 4 4 4 4 4 4 5 4 4 4 4 4 4 5 6 5 5 5 5 5 6 6 6 7 9 10 10 5 6 3 4 6 9 9 4 9 10 7 7 8 7 7 11 17 18 19 15 12 12 10 8 7 6 8 9 10 10 10 11 12 11
5 4 4 4 3 3 2 3 6 8 4 0 1 2 3 3 3 4 4 5 6 9 9 7 6 5 6 7 8 8 8 6 5 5 6 6 5 8 10 10 6 7 2 2 3 8 11 6 8 10 8 9 9 8 7 6 10 16 13 7 7 8 7 7 6 5 5 7 7 7 9 10 11 11
3 2 3 2 1 4 6 8 10 10 7 5 4 4 4 4 4 4 3 4 4 8 9 10 11 12 13 14 13 12 12 13 10 7 10 7 6 9 7 10 6 6 3 4 4 8 8 7 7 9 6 5 3 5 7 7 9 13 7 7 7 7 7 6 5 4 4 4 4 4 7 8 7 5
3 8 9 11 9 8 8 11 10 9 7 4 3 1 2 3 4 5 1 3 4 5 6 6 6 7 9 8 7 8 13 14 12 8 9 6 6 9 8 8 7 9 2 5 2 4 5 5 4 5 8 7 4 3 5 6 7 7 4 3 5 7 7 7 7 6 5 4 4 4 5 6 4 3
6 5 6 7 12 12 11 9 9 6 6 2 0 0 1 3 6 2 2 3 4 4 4 5 4 6 6 6 5 5 5 7 6 8 7 6 7 8 8 7 7 9 6 3 3 8 6 4 6 2 3 7 6 5 7 9 7 7 2 0 2 0 4 4 4 4 4 3 4 5 6 6 4 3
5 5 4 4 7 10 9 7 6 5 4 4 1 2 3 3 4 4 3 4 6 4 4 5 5 6 6 5 5 6 6 6 6 6 6 6 6 7 8 8 9 9 8 6 6 6 7 4 7 5 5 4 6 6 3 7 8 8 6 3 1 0 2 2 2 2 3 3 3 4 5 6 7 7
5 5 5 4 5 7 7 7 6 4 4 5 2 4 7 9 9 6 3 4 4 5 5 6 6 6 6 6 6 6 6 7 7 7 7 7 7 7 7 8 9 9 7 5 10 8 7 7 5 6 5 6 8 5 7 5 8 6 4 4 3 1 2 2 2 2 2 1 2 2 3 5 6 9
4 4 5 4 5 4 5 5 6 6 7 5 5 8 8 9 11 7 5 4 5 6 6 6 7 7 6 6 6 6 6 7 7 7 7 7 7 7 7 8 7 8 7 6 5 7 8 8 6 7 8 6 8 6 6 6 7 6 6 3 3 3 3 2 2 2 3 3 2 3 3 3 0 1
5 5 3 1 2 3 5 7 7 7 6 5 7 7 8 10 8 3 4 4 6 5 6 6 7 7 6 6 6 6 7 7 7 7 7 7 8 8 8 9 10 9 8 7 7 7 8 9 8 7 9 9 9 9 8 6 5 6 7 3 1 1 1 1 1 1 2 1 2 2 2 3 3 4
3 3 1 4 6 7 7 7 6 6 6 7 7 7 8 7 3 4 4 6 5 5 6 7 6 6 6 6 7 7 7 7 7 7 7 7 8 9 9 9 9 9 8 6 7 7 8 8 8 7 7 8 9 8 7 8 6 6 5 7 5 1 1 1 1 1 1 2 2 2 2 1 1 1
5 6 7 7 7 7 6 5 3 4 4 6 6 7 7 4 4 4 4 4 4 5 5 5 6 5 5 5 5 5 6 5 6 6 6 6 6 6 7 8 7 6 7 8 8 8 8 8 8 8 9 8 7 8 7 8 8 7 5 5 6 3 2 1 1 2 2 1 0 1 2 2 1 1
3 4 5 5 7 6 9 7 5 5 4 3 3 3 2 3 3 3 2 3 4 5 7 7 7 6 6 6 6 6 6 6 6 5 6 7 7 7 7 8 9 7 7 8 8 8 7 7 7 7 9 8 7 8 7 6 7 5 6 6 5 6 2 0 0 1 2 2 2 2 3 3 2 1
2 2 4 4 3 4 4 5 5 3 2 1 1 2 2 2 3 4 5 5 4 5 6 7 6 6 6 6 6 6 6 6 7 6 7 7 8 7 8 8 8 7 7 7 8 8 8 7 6 5 5 5 6 5 4 5 6 6 6 6 5 5 2 4 3 1 1 2 2 1 1 1 1 2
0 2 4 5 5 4 4 5 6 5 5 5 4 4 5 5 5 6 5 6 6 6 6 7 7 7 6 7 6 7 7 7 7 6 7 8 8 8 8 9 9 8 9 8 7 7 6 6 5 6 6 6 6 6 6 7 7 7 8 7 7 6 4 4 3 3 2 3 1 1 1 0 1 2
2 3 3 3 1 3 4 3 3 3 3 5 6 5 5 6 6 6 6 6 6 6 6 7 6 7 7 7 7 7 8 8 7 7 8 8 8 8 8 9 9 8 8 8 7 7 7 6 6 6 6 6 6 7 8 9 9 7 6 6 6 6 5 4 4 4 5 3 3 3 2 0 1 3
3 3 3 2 1 2 2 2 3 3 4 5 5 6 6 6 6 5 5 6 5 6 7 7 7 7 7 8 7 8 8 8 8 7 7 7 8 8 9 9 9 9 8 8 8 7 6 6 6 6 7 7 8 9 9 10 8 9 7 7 7 8 6 5 5 5 5 2 4 5 2 1 1 2
4 1 1 0 1 1 3 2 3 3 4 5 5 5 5 6 6 6 6 6 6 7 7 8 8 8 8 7 8 8 8 8 8 8 8 7 8 8 8 9 9 9 8 9 9 7 6 7 6 7 8 7 7 9 6 12 15 8 8 7 6 7 5 5 5 5 5 4 5 5 4 4 3 2
1 3 1 1 2 3 3 3 3 4 4 5 5 6 6 6 6 6 6 6 7 7 8 8 8 8 8 8 9 9 9 8 9 8 8 8 8 8 9 9 9 9 9 9 8 8 6 7 6 7 9 9 10 10 7 0 11 14 8 7 6 6 6 5 6 5 4 5 4 3 3 3 2 2
0 1 1 1 2 2 2 2 3 4 5 5 5 6 6 6 7 8 7 7 8 8 9 8 9 9 8 8 9 9 8 8 9 9 9 8 8 8 8 9 9 8 8 8 7 7 7 7 7 7 8 10 9 9 7 2 2 4 10 10 8 5 5 6 6 6 5 3 4 2 3 5 4 2
1 0 0 1 1 2 4 3 3 4 5 5 6 6 7 7 7 7 8 8 8 8 8 9 9 9 9 9 9 9 9 9 9 9 9 8 8 9 9 9 9 8 8 8 7 7 6 7 8 7 8 8 9 7 5 4 4 4 4 6 7 4 6 7 6 6 7 6 5 6 6 6 8 11
1 2 2 3 2 4 4 3 4 4 5 5 6 6 6 7 8 8 8 8 8 9 9 9 10 9 9 9 9 9 9 10 10 9 9 9 9 9 9 9 9 9 8 9 8 7 6 7 6 7 7 8 8 7 6 4 3 1 3 5 5 11 8 6 7 8 5 5 7 9 8 6 5 2
4 3 2 2 4 5 4 4 3 4 5 5 6 6 7 7 8 8 8 9 9 9 9 9 9 9 9 9 9 9 9 9 9 9 9 9 10 9 11 10 9 8 9 9 9 8 8 8 8 10 10 7 6 3 3 4 5 5 4 4 7 2 9 11 10 9 7 8 7 8 8 7 7 6
4 4 3 5 4 3 5 5 5 5 6 6 7 7 8 8 8 13 12 12 10 9 9 9 9 9 9 9 9 9 9 9 9 9 9 9 9 9 10 9 9 8 8 9 8 8 6 4 6 7 7 7 6 6 7 5 4 3 1 1 3 4 9 7 3 9 14 12 11 9 6 5 4 6
5 4 4 3 4 5 5 4 5 5 6 6 7 7 8 9 8 9 8 9 9 9 9 9 9 9 9 9 8 8 9 9 9 9 9 9 9 9 8 8 8 8 8 8 8 7 6 5 5 6 6 6 6 6 6 5 4 4 3 2 3 4 7 12 14 12 10 9 8 5 2 5 9 8
4 4 4 4 6 4 3 4 5 6 6 6 7 7 8 8 9 9 9 9 9 9 9 9 9 9 9 9 9 9 8 9 9 9 10 9 9 9 9 9 9 8 8 7 7 6 5 5 5 5 5 6 5 5 6 4 4 5 5 4 4 6 7 7 8 9 10 10 10 9 11 11 10 10
4 4 4 6 4 4 4 5 6 6 6 6 7 7 8 8 8 9 9 9 9 10 10 9 9 9 9 9 9 9 9 9 9 9 9 9 9 9 9 9 8 8 7 6 6 5 4 5 5 5 5 5 4 5 5 6 5 5 5 6 6 6 6 7 8 8 7 6 7 12 13 15 17 19
Wind_Direction
65 64 80 97 78 70 72 63 68 58 40 33 33 56 111 122 90 5 345 308 329 345 38 23 321 15 8 4 7 5 334 331 333 338 339 332 304 217 216 229 235 237 238 237 236 235 237 238 239 237 237 236 232 228 224 225 224 221 220 222 218 217 216 216 214 212 217 223 223 222 217 217 206 210
64 67 68 84 72 52 73 109 132 111 83 56 50 55 63 120 120 141 13 297 275 301 335 60 330 349 359 360 351 346 335 324 340 352 347 331 320 314 323 255 231 235 239 240 242 241 239 239 239 239 238 237 237 235 231 226 224 222 222 223 222 220 219 218 216 215 216 218 220 221 222 220 208 206
88 74 73 73 64 50 39 360 38 158 114 130 112 64 75 89 131 139 146 3 286 339 330 317 341 332 345 347 336 331 328 333 345 341 339 331 326 329 317 302 280 266 257 249 245 243 240 239 240 241 241 242 242 242 242 238 233 230 225 220 221 222 223 222 221 220 219 219 221 223 224 223 216 206
102 99 98 111 104 56 48 29 35 17 326 191 152 238 22 356 119 130 128 194 267 300 290 320 323 345 343 339 339 338 337 343 347 336 332 327 330 323 310 302 293 277 267 258 250 247 245 242 242 241 241 242 243 242 240 242 242 239 235 228 222 221 222 223 224 225 224 221 222 224 225 222 222 217
152 159 162 161 146 102 67 30 16 22 30 28 342 318 39 350 337 81 113 274 292 303 300 337 323 324 332 325 330 331 337 336 331 328 318 316 314 310 301 294 292 289 283 276 269 269 271 270 269 267 264 259 253 245 240 239 238 235 230 228 230 230 228 226 224 225 227 226 225 225 225 222 221 219
146 129 94 224 117 94 89 24 3 356 355 14 51 36 138 215 262 203 143 199 232 287 321 323 313 307 317 307 316 325 327 316 313 310 305 301 291 285 279 275 271 267 268 275 279 267 258 255 252 250 247 245 244 246 246 242 238 236 234 229 226 227 229 231 232 228 226 225 227 227 226 223 221 220
159 145 139 154 154 122 61 317 309 328 328 17 60 39 48 40 13 13 15 23 308 297 285 268 307 299 320 309 303 309 301 296 299 299 297 292 294 287 278 277 278 285 294 295 255 263 265 265 268 265 259 252 247 243 241 243 245 243 240 237 232 228 228 228 230 231 228 228 228 228 227 226 224 222
175 181 185 223 179 129 141 267 286 343 30 52 48 37 14 41 33 14 37 76 193 265 320 299 299 289 307 295 299 305 303 301 304 295 292 294 294 292 293 285 271 261 268 285 297 320 341 315 292 279 268 257 252 249 245 240 236 238 238 236 236 234 231 230 229 230 231 230 230 230 230 228 226 224
179 182 186 213 173 154 149 251 1 32 47 47 55 42 13 19 1 7 7 355 14 356 313 299 298 316 308 297 301 299 306 306 301 303 297 292 292 298 296 307 316 322 334 340 346 342 327 318 307 290 272 264 258 250 247 246 245 240 237 236 236 235 234 232 230 230 230 230 231 233 233 232 230 228
175 177 189 184 156 148 152 201 156 83 70 44 39 31 15 14 22 16 356 3 0 358 310 298 309 326 309 316 309 304 303 302 304 306 305 315 325 339 338 325 315 320 321 323 324 320 320 317 310 305 296 274 258 256 252 248 244 244 242 238 236 235 234 233 232 231 232 233 234 234 235 236 235 236
161 162 167 155 146 145 159 151 138 110 59 61 49 40 28 10 28 9 354 355 355 341 327 304 291 304 301 301 314 319 329 320 319 326 330 328 320 321 320 314 313 314 307 289 289 296 295 302 309 307 304 299 291 269 253 249 250 248 245 242 238 236 235 235 233 231 230 231 233 234 236 238 239 238
160 150 147 147 157 149 144 135 139 117 109 67 26 348 36 31 32 16 358 6 360 350 340 320 321 316 311 332 315 324 344 345 341 350 341 327 329 333 330 322 321 307 319 317 324 328 333 330 318 312 316 316 302 293 281 272 263 261 261 260 254 246 240 236 235 232 229 228 228 230 232 233 236 237
159 155 149 152 151 137 134 135 131 125 134 123 288 302 40 32 27 349 5 350 353 337 334 317 325 322 322 314 330 327 331 345 321 315 352 324 329 330 330 329 322 339 357 356 351 344 347 335 329 320 318 318 323 312 300 287 279 271 265 263 260 260 259 256 249 242 236 231 229 229 229 231 232 233
158 162 152 150 145 142 141 137 134 139 143 147 159 196 191 248 325 333 321 324 317 320 316 305 316 318 304 306 309 306 308 321 327 343 351 338 325 328 324 317 305 8 14 358 342 328 331 329 314 317 315 308 320 321 322 309 307 305 295 282 274 267 260 254 249 244 239 236 232 229 229 230 232 233
165 164 156 142 146 148 149 149 155 163 175 176 192 213 215 192 186 213 277 283 277 287 284 286 302 288 288 290 296 301 307 312 324 317 323 316 324 332 336 313 317 2 10 343 331 319 328 331 323 322 319 319 319 320 309 309 307 300 294 287 276 270 266 259 253 246 241 238 233 231 230 229 229 231
156 158 150 155 151 162 171 169 173 186 195 200 213 222 228 231 235 238 213 251 286 274 279 290 278 282 278 287 300 300 306 302 322 317 319 314 313 314 310 294 292 315 359 330 318 301 304 308 307 302 299 301 297 297 305 311 313 311 306 297 286 276 267 261 256 249 242 236 233 231 230 230 229 229
158 164 152 157 171 169 180 180 184 187 220 236 232 234 248 270 255 252 246 232 231 258 269 272 277 264 279 287 284 273 278 315 310 309 303 300 287 279 284 286 294 308 335 318 306 299 314 309 285 280 288 286 288 289 291 287 286 288 292 298 296 288 279 270 259 250 241 235 231 230 230 230 229 229
161 165 171 160 172 177 185 194 191 202 217 234 235 214 219 235 254 250 247 246 242 233 235 250 264 270 257 270 277 279 292 296 289 291 285 280 278 275 272 277 280 288 303 290 299 288 306 307 300 290 291 272 274 271 270 272 273 277 284 287 289 293 290 281 276 264 248 241 241 244 248 250 244 237
150 147 144 143 145 148 167 186 193 203 218 193 200 193 216 218 233 232 230 222 219 230 223 226 245 262 267 269 279 290 297 289 285 282 282 282 278 281 287 286 270 281 231 267 296 288 306 304 293 289 296 290 281 271 270 269 272 274 275 277 281 289 296 294 285 252 229 220 216 220 227 235 238 235
117 117 121 120 134 153 154 162 181 192 165 161 171 190 215 229 242 242 245 238 231 234 246 261 275 288 299 312 305 303 302 304 304 306 303 304 296 293 291 283 295 273 284 263 274 284 290 296 287 294 300 307 302 300 288 278 274 276 274 278 297 299 283 273 257 223 205 203 204 213 222 234 238 239
121 123 128 124 151 180 184 107 74 42 42 65 352 329 320 308 311 298 315 323 347 9 12 1 346 326 306 298 296 296 293 280 285 297 307 289 283 283 288 283 284 279 276 252 252 283 290 297 291 297 301 296 297 295 288 293 297 303 316 323 313 302 276 262 250 231 213 209 210 216 224 228 227 227
77 102 74 90 107 79 66 70 63 49 56 59 45 36 12 352 342 319 342 358 339 341 340 339 333 328 324 320 316 311 309 309 312 307 290 293 298 279 273 284 285 286 265 262 254 274 271 294 287 290 293 294 279 307 312 319 324 325 336 17 35 41 54 50 40 21 3 350 324 282 258 249 239 228
92 60 48 68 85 97 95 82 79 74 76 82 78 66 17 314 296 272 318 334 325 324 326 323 326 316 315 311 309 308 309 304 298 283 277 279 262 274 272 273 293 292 240 236 202 274 293 314 293 332 329 312 291 286 311 325 339 334 354 4 15 37 59 55 46 38 21 358 325 290 271 267 241 234
75 79 73 78 100 102 101 99 98 103 105 114 147 170 261 272 281 262 313 298 299 293 288 289 290 288 283 284 283 280 281 284 280 282 276 270 259 267 273 266 259 266 274 258 249 272 277 280 291 353 285 308 310 348 340 325 339 333 340 315 107 83 128 106 85 66 54 35 344 316 300 286 232 230
99 100 96 95 110 113 117 123 130 139 159 178 190 211 237 225 246 283 294 284 283 279 279 282 285 278 272 264 264 266 271 272 274 274 273 267 259 262 272 271 264 264 258 244 229 251 269 256 278 296 290 280 287 311 319 319 320 325 305 306 20 3 56 69 74 57 41 29 8 344 313 290 240 226
76 117 142 131 133 132 140 150 167 197 207 215 211 232 231 249 262 267 257 268 281 283 281 276 273 270 266 263 258 258 256 259 265 265 266 271 273 260 256 266 275 280 277 247 226 239 257 263 261 276 274 282 288 300 307 312 301 304 346 349 346 345 15 44 39 36 20 13 0 336 298 278 254 238
51 72 111 123 137 148 168 186 209 217 228 220 227 241 256 263 268 276 281 279 283 278 275 272 269 264 259 259 256 250 250 246 248 256 262 267 270 277 280 277 277 280 292 295 279 270 265 270 258 259 272 268 279 289 283 296 300 306 312 318 332 357 353 29 31 2 3 358 345 6 12 14 65 159
56 69 92 149 189 222 229 240 245 241 232 237 253 260 266 269 277 276 272 272 266 270 275 272 267 262 255 256 261 257 253 255 251 252 254 258 264 271 275 281 286 280 277 271 267 261 257 259 260 251 255 266 271 277 284 265 254 280 294 299 322 338 327 67 78 22 351 4 4 1 20 37 40 73
31 12 71 174 207 224 247 275 301 312 306 300 295 286 282 287 274 262 255 261 269 273 267 263 261 263 261 259 264 267 268 267 265 266 264 260 261 264 266 265 267 275 278 271 265 259 258 258 260 257 254 253 262 265 266 274 280 279 287 307 312 279 266 233 128 121 357 20 28 23 28 37 44 50
9 6 351 337 336 327 317 324 324 303 292 304 313 308 294 281 263 256 257 266 263 267 278 284 285 277 277 276 275 274 277 277 278 276 277 281 276 273 275 276 267 263 269 272 270 266 260 258 258 259 259 253 251 263 265 277 273 276 275 272 277 302 245 189 166 150 129 119 63 64 22 64 83 120
7 347 340 318 310 307 310 305 279 271 294 324 312 311 310 289 258 253 254 278 295 306 309 304 299 297 293 296 303 299 295 289 286 283 290 290 288 287 283 281 280 276 266 266 267 264 264 262 259 254 260 257 251 248 257 259 269 268 273 279 281 266 249 213 266 150 132 124 82 62 49 60 51 72
348 322 315 333 7 12 31 27 28 23 23 4 281 279 268 274 298 317 306 299 288 283 278 281 287 292 294 294 289 290 289 286 286 287 286 286 286 283 284 279 279 279 277 272 273 266 259 257 253 248 247 256 261 270 270 264 267 270 271 270 277 282 259 229 234 218 162 109 93 71 60 71 120 113
311 16 23 22 16 36 35 29 14 4 359 342 336 337 330 325 312 304 308 302 292 289 294 290 289 289 293 290 289 287 287 284 285 283 282 278 280 281 275 274 276 278 279 277 273 275 272 274 266 265 265 262 256 255 262 271 262 262 267 269 274 264 242 235 202 186 144 99 107 112 141 34 94 115
58 41 47 17 28 37 41 25 13 350 346 338 330 317 310 308 309 304 296 290 287 287 283 283 287 288 288 288 287 286 284 286 280 277 276 280 278 276 272 272 271 269 268 272 272 270 270 267 272 273 269 264 259 251 251 259 268 261 252 259 249 250 228 201 184 174 169 166 154 146 162 186 62 114
35 31 27 348 4 35 46 37 354 358 351 334 328 315 307 297 291 288 286 284 286 287 286 286 282 281 281 283 284 284 283 283 283 280 272 269 268 265 267 268 271 270 270 269 267 266 266 268 267 272 270 272 275 266 234 236 258 253 255 242 236 238 224 189 176 174 167 149 143 144 149 163 135 118
30 10 20 338 8 47 42 4 16 355 340 322 312 304 309 304 297 294 292 288 290 291 290 288 286 284 281 280 281 281 282 282 280 278 276 269 267 265 261 260 264 266 263 262 266 265 260 262 254 260 267 266 263 271 267 209 216 238 236 244 226 223 205 180 175 163 154 159 152 144 160 181 182 131
8 342 337 159 54 59 46 22 10 342 324 317 315 310 302 299 297 291 288 296 298 295 292 291 289 289 287 286 286 286 284 283 281 280 277 274 269 266 267 264 260 259 260 257 255 260 251 255 246 247 255 262 261 265 266 167 222 223 222 236 237 215 186 165 157 165 181 152 139 140 156 138 127 129
266 288 344 47 71 64 48 24 0 341 322 312 307 305 303 301 306 306 308 309 302 300 296 293 289 288 286 282 283 282 281 276 276 276 274 272 270 267 262 265 264 259 259 257 249 247 239 242 240 234 235 247 258 260 276 221 219 250 223 219 231 213 172 162 164 162 147 120 106 114 107 114 123 107
207 322 228 109 75 64 34 356 343 333 324 320 317 310 308 306 305 304 304 298 294 290 289 287 285 283 282 281 277 278 280 280 277 274 274 270 265 267 268 265 266 261 261 263 251 245 237 235 230 226 223 235 242 255 251 256 245 257 291 264 231 186 182 174 168 145 136 119 100 83 71 84 81 87
222 171 150 88 46 46 20 351 351 332 319 306 301 296 298 303 302 302 300 299 297 293 291 286 285 285 282 280 279 278 274 273 272 272 271 270 269 265 265 264 263 266 264 262 261 248 236 234 227 225 228 232 240 244 243 241 252 278 298 330 248 196 180 174 156 145 122 131 132 120 127 121 107 49
100 79 66 71 47 25 2 350 326 312 310 304 299 296 295 295 300 297 296 297 295 294 293 291 289 286 284 282 279 279 279 275 273 271 270 268 266 264 262 262 263 258 259 261 258 256 246 237 228 232 238 245 246 276 276 239 237 235 279 319 351 243 187 174 156 152 141 150 138 133 131 133 131 128
104 90 63 50 41 6 1 346 323 323 312 308 304 303 303 303 296 303 300 297 293 290 289 290 289 288 286 283 282 280 277 277 276 274 271 271 271 267 260 256 257 255 251 255 256 255 254 232 228 226 227 229 231 226 235 234 225 201 240 0 338 67 98 72 98 147 148 156 147 135 109 88 101 119
78 75 61 29 31 11 348 334 329 317 309 304 305 307 306 304 303 304 302 300 298 296 293 293 291 290 287 285 281 279 279 277 275 275 274 270 268 268 267 260 255 253 250 253 253 255 252 231 220 215 216 215 221 208 228 219 195 156 131 91 98 77 70 87 92 86 79 70 54 66 113 146 153 167
80 72 50 37 22 347 345 332 319 311 303 303 302 306 305 306 305 304 302 300 301 300 300 296 294 291 288 287 285 281 277 277 276 277 276 273 269 268 268 267 262 258 253 251 254 250 244 230 220 210 215 218 210 199 215 192 171 161 149 132 121 104 109 103 85 71 62 55 70 77 74 77 68 68
79 67 51 32 3 345 328 315 309 302 301 301 304 308 308 307 304 304 303 302 300 299 297 295 294 293 290 288 285 282 279 277 276 273 271 270 269 266 265 262 263 259 254 247 246 248 229 224 221 211 218 220 198 199 191 175 158 136 134 132 123 120 126 128 118 106 91 78 67 92 94 94 97 103